When you browse on this site, cookies collect data to enhance your experience and personalize the content and advertising you see.
Visit our Privacy Policy to learn more. By continuing to use the site, you agree to this use of cookies and data.
  • En España
  • Lista de países
  • Para 7 días
  • Temperatura del agua
  • El tiempo en el mapa
  • Informadores
  • user-avatar
    Iniciar sesión

    Tiempo cada hora Arkalyk

    Hoy, 21 Agosto, Miércoles

    Tiempo Temperatura Precipitaciones Viento Presión Humedad
    00:00 +21°C° 0.1 mm 2 mps 733 mmHg 51%
    01:00 +21°C° 0.1 mm 2 mps 733 mmHg 52%
    02:00 +20°C° 0.1 mm 2 mps 732 mmHg 53%
    03:00 +20°C° 0.1 mm 2 mps 732 mmHg 54%
    04:00 +21°C° 0 mm 2 mps 733 mmHg 47%
    05:00 +23°C° 0.3 mm 2 mps 732 mmHg 48%
    06:00 +22°C° 0.3 mm 3 mps 732 mmHg 50%
    07:00 +24°C° 0.3 mm 3 mps 731 mmHg 52%
    08:00 +25°C° 0.3 mm 4 mps 731 mmHg 47%
    09:00 +27°C° 0.3 mm 5 mps 730 mmHg 42%
    10:00 +29°C° 0.3 mm 6 mps 730 mmHg 37%
    11:00 +28°C° 0.1 mm 6 mps 729 mmHg 38%
    12:00 +28°C° 0.1 mm 7 mps 728 mmHg 39%
    13:00 +28°C° 0.1 mm 7 mps 727 mmHg 40%
    14:00 +28°C° 0.2 mm 6 mps 727 mmHg 39%
    15:00 +29°C° 0.2 mm 6 mps 727 mmHg 38%
    16:00 +29°C° 0.2 mm 6 mps 727 mmHg 38%
    17:00 +28°C° 0.1 mm 6 mps 727 mmHg 44%
    18:00 +26°C° 0.1 mm 7 mps 727 mmHg 51%
    19:00 +23°C° 0.1 mm 8 mps 727 mmHg 57%
    20:00 +22°C° 0 mm 8 mps 727 mmHg 65%
    21:00 +20°C° 0 mm 8 mps 728 mmHg 73%
    22:00 +17°C° 0 mm 8 mps 728 mmHg 81%
    23:00 +16°C° 0 mm 8 mps 728 mmHg 80%

    Mañana, 22 Agosto, Jueves

    Tiempo Temperatura Precipitaciones Viento Presión Humedad
    00:00 +16°C° 0 mm 8 mps 728 mmHg 78%
    01:00 +15°C° 0 mm 8 mps 728 mmHg 76%
    02:00 +14°C° 0 mm 7 mps 729 mmHg 76%
    03:00 +14°C° 0 mm 6 mps 729 mmHg 77%
    04:00 +13°C° 0 mm 6 mps 730 mmHg 77%
    05:00 +14°C° 0 mm 6 mps 730 mmHg 73%
    06:00 +15°C° 0 mm 6 mps 731 mmHg 69%
    07:00 +15°C° 0 mm 6 mps 731 mmHg 65%
    08:00 +17°C° 0 mm 6 mps 731 mmHg 57%
    09:00 +19°C° 0 mm 6 mps 731 mmHg 49%
    10:00 +20°C° 0 mm 6 mps 732 mmHg 41%
    11:00 +21°C° 0 mm 6 mps 732 mmHg 41%
    12:00 +22°C° 0 mm 7 mps 732 mmHg 40%
    13:00 +23°C° 0 mm 7 mps 732 mmHg 40%
    14:00 +23°C° 0 mm 7 mps 732 mmHg 42%
    15:00 +23°C° 0 mm 6 mps 732 mmHg 45%
    16:00 +22°C° 0 mm 6 mps 732 mmHg 48%
    17:00 +22°C° 0 mm 6 mps 732 mmHg 52%
    18:00 +21°C° 0 mm 5 mps 732 mmHg 56%
    19:00 +20°C° 0 mm 4 mps 732 mmHg 60%
    20:00 +19°C° 0 mm 4 mps 733 mmHg 63%
    21:00 +18°C° 0 mm 4 mps 733 mmHg 65%
    22:00 +17°C° 0 mm 3 mps 733 mmHg 68%
    23:00 +17°C° 0 mm 3 mps 733 mmHg 71%

    Pasado mañana, 23 Agosto, Viernes

    Tiempo Temperatura Precipitaciones Viento Presión Humedad
    00:00 +16°C° 0 mm 3 mps 733 mmHg 73%
    01:00 +16°C° 0 mm 3 mps 733 mmHg 76%
    02:00 +14°C° 0 mm 3 mps 733 mmHg 78%
    03:00 +14°C° 0 mm 3 mps 734 mmHg 80%
    04:00 +13°C° 0 mm 3 mps 734 mmHg 82%
    05:00 +14°C° 0 mm 3 mps 734 mmHg 78%
    06:00 +16°C° 0 mm 3 mps 735 mmHg 74%
    07:00 +17°C° 0 mm 3 mps 735 mmHg 70%
    08:00 +19°C° 0 mm 3 mps 735 mmHg 61%
    09:00 +20°C° 0 mm 3 mps 736 mmHg 53%
    10:00 +22°C° 0 mm 3 mps 736 mmHg 44%
    11:00 +24°C° 0 mm 3 mps 736 mmHg 41%
    12:00 +25°C° 0 mm 3 mps 735 mmHg 38%
    13:00 +26°C° 0 mm 3 mps 735 mmHg 35%
    14:00 +26°C° 0 mm 3 mps 735 mmHg 34%
    15:00 +26°C° 0 mm 3 mps 735 mmHg 33%
    16:00 +27°C° 0 mm 2 mps 735 mmHg 32%
    17:00 +25°C° 0 mm 2 mps 735 mmHg 35%
    18:00 +24°C° 0 mm 2 mps 735 mmHg 39%
    19:00 +23°C° 0 mm 2 mps 735 mmHg 42%
    20:00 +22°C° 0 mm 1 mps 735 mmHg 44%
    21:00 +22°C° 0 mm 1 mps 735 mmHg 47%
    22:00 +21°C° 0 mm 1 mps 735 mmHg 49%
    23:00 +20°C° 0 mm 1 mps 735 mmHg 51%

    24 Agosto, Sábado

    Tiempo Temperatura Precipitaciones Viento Presión Humedad
    00:00 +20°C° 0 mm 1 mps 735 mmHg 54%
    01:00 +19°C° 0 mm 1 mps 735 mmHg 56%
    02:00 +19°C° 0 mm 1 mps 735 mmHg 55%
    03:00 +19°C° 0 mm 1 mps 735 mmHg 54%
    04:00 +18°C° 0 mm 2 mps 735 mmHg 53%
    05:00 +20°C° 0 mm 2 mps 735 mmHg 50%
    06:00 +21°C° 0 mm 3 mps 735 mmHg 46%
    07:00 +22°C° 0 mm 3 mps 736 mmHg 42%
    08:00 +25°C° 0 mm 3 mps 736 mmHg 39%
    09:00 +26°C° 0 mm 3 mps 736 mmHg 36%
    10:00 +27°C° 0 mm 4 mps 736 mmHg 32%
    11:00 +28°C° 0 mm 4 mps 735 mmHg 31%
    12:00 +29°C° 0 mm 4 mps 735 mmHg 29%
    13:00 +30°C° 0 mm 4 mps 735 mmHg 27%
    14:00 +30°C° 0 mm 4 mps 734 mmHg 26%
    15:00 +30°C° 0 mm 4 mps 734 mmHg 26%
    16:00 +30°C° 0 mm 4 mps 734 mmHg 25%
    17:00 +29°C° 0 mm 3 mps 734 mmHg 28%
    18:00 +27°C° 0 mm 3 mps 734 mmHg 31%
    19:00 +26°C° 0 mm 2 mps 734 mmHg 33%
    20:00 +25°C° 0 mm 2 mps 734 mmHg 36%
    21:00 +25°C° 0 mm 2 mps 734 mmHg 38%
    22:00 +24°C° 0 mm 2 mps 734 mmHg 41%
    23:00 +23°C° 0 mm 2 mps 734 mmHg 46%

    25 Agosto, Domingo

    Tiempo Temperatura Precipitaciones Viento Presión Humedad
    00:00 +23°C° 0 mm 2 mps 733 mmHg 52%
    01:00 +21°C° 0 mm 2 mps 733 mmHg 57%
    02:00 +21°C° 0 mm 2 mps 733 mmHg 60%
    03:00 +20°C° 0 mm 2 mps 733 mmHg 63%
    04:00 +20°C° 0 mm 2 mps 733 mmHg 66%
    05:00 +20°C° 0 mm 3 mps 734 mmHg 66%
    06:00 +21°C° 0 mm 3 mps 734 mmHg 66%
    07:00 +21°C° 0 mm 4 mps 734 mmHg 66%
    08:00 +23°C° 0 mm 4 mps 734 mmHg 59%
    09:00 +26°C° 0 mm 4 mps 734 mmHg 53%
    10:00 +27°C° 0 mm 3 mps 735 mmHg 46%
    11:00 +28°C° 0 mm 3 mps 734 mmHg 42%
    12:00 +29°C° 0 mm 2 mps 734 mmHg 37%
    13:00 +30°C° 0 mm 2 mps 734 mmHg 33%
    14:00 +30°C° 0 mm 2 mps 734 mmHg 33%
    15:00 +30°C° 0 mm 2 mps 733 mmHg 32%
    16:00 +30°C° 0 mm 2 mps 733 mmHg 31%
    17:00 +29°C° 0 mm 2 mps 733 mmHg 34%
    18:00 +27°C° 0 mm 3 mps 733 mmHg 37%
    19:00 +26°C° 0 mm 4 mps 733 mmHg 40%
    20:00 +25°C° 0 mm 4 mps 733 mmHg 41%
    21:00 +23°C° 0 mm 4 mps 733 mmHg 42%
    22:00 +23°C° 0 mm 4 mps 733 mmHg 43%
    23:00 +22°C° 0 mm 4 mps 733 mmHg 44%

    26 Agosto, Lunes

    Tiempo Temperatura Precipitaciones Viento Presión Humedad
    00:00 +22°C° 0 mm 4 mps 732 mmHg 45%
    01:00 +21°C° 0 mm 4 mps 732 mmHg 46%
    02:00 +21°C° 0 mm 3 mps 732 mmHg 48%
    03:00 +20°C° 0 mm 3 mps 732 mmHg 51%
    04:00 +20°C° 0 mm 2 mps 731 mmHg 54%
    05:00 +21°C° 0 mm 3 mps 731 mmHg 50%
    06:00 +24°C° 0 mm 3 mps 731 mmHg 47%
    07:00 +25°C° 0 mm 3 mps 731 mmHg 44%
    08:00 +27°C° 0 mm 3 mps 731 mmHg 39%
    09:00 +29°C° 0 mm 4 mps 731 mmHg 35%
    10:00 +30°C° 0 mm 4 mps 730 mmHg 30%
    11:00 +32°C° 0 mm 4 mps 730 mmHg 27%
    12:00 +33°C° 0 mm 4 mps 729 mmHg 25%
    13:00 +34°C° 0 mm 5 mps 729 mmHg 22%
    14:00 +34°C° 0 mm 5 mps 728 mmHg 22%
    15:00 +34°C° 0 mm 5 mps 728 mmHg 21%
    16:00 +33°C° 0 mm 5 mps 727 mmHg 21%
    17:00 +32°C° 0 mm 4 mps 727 mmHg 23%
    18:00 +30°C° 0 mm 3 mps 726 mmHg 25%
    19:00 +28°C° 0 mm 3 mps 726 mmHg 27%
    20:00 +27°C° 0 mm 3 mps 725 mmHg 28%
    21:00 +27°C° 0 mm 4 mps 725 mmHg 29%
    22:00 +26°C° 0 mm 5 mps 724 mmHg 30%
    23:00 +25°C° 0 mm 4 mps 724 mmHg 34%
    Mostrar más